Regional Weather Roundup
Issued by NWS

Home | Current Version | Previous Version | Text Only | Print | Product List | Glossary On
Versions: 1 2 3 4 5 6 7 8 9 10 11 12 13 14 15 16 17 18 19 20 21 22 23 24 25 26 27 28 29 30 31 32 33 34 35 36 37 38 39 40 41 42 43 44 45 46 47 48 49 50
000
ASUS43 KMKX 271221
RWRWI

WISCONSIN REGIONAL WEATHER ROUNDUP
NATIONAL WEATHER SERVICE MILWAUKEE/SULLIVAN WI
700 AM CDT WED MAY 27 2015

NOTE: "FAIR" INDICATES FEW OR NO CLOUDS BELOW 12,000 FEET WITH NO
SIGNIFICANT WEATHER AND/OR OBSTRUCTIONS TO VISIBILITY.

WIZ001-002-006>008-014>016-023>028-271300-
NORTHWEST WISCONSIN

CITY           SKY/WX    TMP DP  RH WIND       PRES   REMARKS
SUPERIOR ARPT  PTSUNNY   53  51  92 SW9       29.82R
6HR MIN TEMP:  48; 6HR MAX TEMP:  53;

ASHLAND        CLOUDY    55  53  93 SW9       29.82R
6HR MIN TEMP:  52; 6HR MAX TEMP:  55; 6HR PCP:  0.04;

HAYWARD        CLOUDY    53  51  93 SW3       29.86R
6HR MIN TEMP:  52; 6HR MAX TEMP:  54; 6HR PCP:  0.01;

SIREN          PTSUNNY   53  52  98 CALM      29.87R
6HR MIN TEMP:  51; 6HR MAX TEMP:  53;

CUMBERLAND     CLOUDY    52  50  93 SW5       29.88R
RICE LAKE      CLOUDY    54  52  94 CALM      29.89R
6HR MIN TEMP:  53; 6HR MAX TEMP:  55; 6HR PCP:  0.01;

CHETEK         CLOUDY    54  54 100 CALM      29.88R
6HR MIN TEMP:  53; 6HR MAX TEMP:  55; 6HR PCP:  0.01;

LADYSMITH      CLOUDY    55  54  97 W3        29.88R
6HR MIN TEMP:  54; 6HR MAX TEMP:  55; 6HR PCP:  0.07;

EAU CLAIRE     CLOUDY    56  54  93 SW5       29.89R
6HR MIN TEMP:  56; 6HR MAX TEMP:  57; 6HR PCP:  0.09;

MENOMONIE      CLOUDY    56  56 100 SW5       29.90R FOG
6HR MIN TEMP:  56; 6HR MAX TEMP:  57; 6HR PCP:  0.05;

NEW RICHMOND   PTSUNNY   55  55 100 SW5       29.90R FOG
6HR MIN TEMP:  53; 6HR MAX TEMP:  56;

OSCEOLA        PTSUNNY   54  54 100 S3        29.92R
6HR MIN TEMP:  51; 6HR MAX TEMP:  56; 6HR PCP:  0.01;

$$

WIZ003>005-009-010-017-018-271300-
NORTH CENTRAL WISCONSIN

CITY           SKY/WX    TMP DP  RH WIND       PRES   REMARKS
MANITOWISH WTR CLOUDY    53  53 100 W7        29.82R
6HR MIN TEMP:  50; 6HR MAX TEMP:  53; 6HR PCP:  0.19;

ARBOR VITAE    DRIZZLE   55  53  94 W5        29.83R
6HR MIN TEMP:  52; 6HR MAX TEMP:  57; 6HR PCP:  0.33;

WOODRUFF       DRIZZLE   55  53  94 W5        29.83R
6HR MIN TEMP:  52; 6HR MAX TEMP:  57; 6HR PCP:  0.33;

RHINELANDER    LGT RAIN  53  52  96 W6        29.83R FOG
6HR MIN TEMP:  53; 6HR MAX TEMP:  57; 6HR PCP:  0.55;

EAGLE RIVER    LGT RAIN  53  53 100 W3        29.82R
6HR MIN TEMP:  52; 6HR MAX TEMP:  55; 6HR PCP:  0.38;

LAND O LAKES   LGT RAIN  54  53  97 W3        29.82R
6HR MIN TEMP:  52; 6HR MAX TEMP:  54; 6HR PCP:  0.05;

PHILLIPS       CLOUDY    52  52 100 CALM      29.85R
6HR MIN TEMP:  50; 6HR MAX TEMP:  52; 6HR PCP:  0.16;

TOMAHAWK       LGT RAIN  52  51  96 W6        29.84R
6HR MIN TEMP:  52; 6HR MAX TEMP:  56;

MEDFORD        LGT RAIN  53  53  98 W8        29.86R
6HR MIN TEMP:  52; 6HR MAX TEMP:  55; 6HR PCP:  0.10;

MERRILL        LGT RAIN  54  54 100 W5        29.85R
$$

WIZ029-030-035-036-043>047-271300-
CENTRAL WISCONSIN

CITY           SKY/WX    TMP DP  RH WIND       PRES   REMARKS
WAUSAU         LGT RAIN  55  53  93 NW7       29.83R
6HR MIN TEMP:  54; 6HR MAX TEMP:  59; 6HR PCP:  0.30;

MOSINEE        CLOUDY    54  54 100 W8        29.85R
MARSHFIELD     CLOUDY    57  53  86 W10       29.86R
6HR MIN TEMP:  56; 6HR MAX TEMP:  58; 6HR PCP: TRACE;

STEVENS POINT  CLOUDY    55  53  94 W6G17     29.86R
6HR MIN TEMP:  55; 6HR MAX TEMP:  58; 6HR PCP:  0.09;

WAUPACA        CLOUDY    61  58  88 W12G17    29.84R
6HR MIN TEMP:  60; 6HR MAX TEMP:  63;

WAUTOMA        CLOUDY    60  58  93 W15       29.86R
6HR MIN TEMP:  60; 6HR MAX TEMP:  63;

WISC RAPIDS    CLOUDY    57  54  89 NW8       29.88R
6HR MIN TEMP:  57; 6HR MAX TEMP:  60; 6HR PCP:  0.02;

CAMP DOUGLAS   CLOUDY    57  55  94 W6        29.90R
                                      6HR PCP:  0.04;

$$

WIZ011>013-019>022-031-037>040-048>050-271300-
NORTHEAST WISCONSIN

CITY           SKY/WX    TMP DP  RH WIND       PRES   REMARKS
ANTIGO         CLOUDY    53  53  99 W12       29.82R FOG
SHAWANO        DRIZZLE   59  56  91 W7        29.80R
6HR MIN TEMP:  59; 6HR MAX TEMP:  63; 6HR PCP:  0.02;

OCONTO         CLOUDY    58  58 100 W10G20    29.76R
STURGEON BAY   CLOUDY    61  55  82 SW10      29.78R
6HR MIN TEMP:  61; 6HR MAX TEMP:  63;

GREEN BAY      CLOUDY    61  56  83 W15       29.79R
6HR MIN TEMP:  61; 6HR MAX TEMP:  65; 6HR PCP: TRACE;

MANITOWOC      CLOUDY    63  58  83 W10G20    29.80R
6HR MIN TEMP:  63; 6HR MAX TEMP:  64;

APPLETON       NOT AVBL
CLINTONVILLE   CLOUDY    59  55  88 W10G16    29.81R
OSHKOSH        CLOUDY    62  56  80 W7        29.83R
6HR MIN TEMP:  62; 6HR MAX TEMP:  63;

$$

WIZ032>034-041-042-053>061-271300-
SOUTHWEST WISCONSIN

CITY           SKY/WX    TMP DP  RH WIND       PRES   REMARKS
LA CROSSE      CLOUDY    61  57  87 W6        29.90R
6HR MIN TEMP:  60; 6HR MAX TEMP:  62; 6HR PCP:  0.02;

SPARTA         CLOUDY    58  56  93 W5        29.91R
6HR MIN TEMP:  57; 6HR MAX TEMP:  60;

VIROQUA        CLOUDY    57  57 100 W6        29.91R
6HR MIN TEMP:  57; 6HR MAX TEMP:  58; 6HR PCP:  0.01;

BOSCOBEL       CLOUDY    61  58  90 SW6       29.90R
6HR MIN TEMP:  59; 6HR MAX TEMP:  61; 6HR PCP: TRACE;

PRAIRIE DU CHI CLOUDY    61  56  85 W6        29.92R
6HR MIN TEMP:  60; 6HR MAX TEMP:  61;

PLATTEVILLE    CLOUDY    60  59  96 W8        29.92R
6HR MIN TEMP:  58; 6HR MAX TEMP:  60; 6HR PCP:  0.06;

$$

WIZ056-057-062-063-064-067-068-271300-
SOUTH CENTRAL WISCONSIN

CITY           SKY/WX    TMP DP  RH WIND       PRES   REMARKS
REEDSBURG      CLOUDY    58  57  97 W8        29.88R FOG
6HR MIN TEMP:  58; 6HR MAX TEMP:  60;

BARABOO/DELLS  CLOUDY    59  56  91 W5        29.88R
6HR MIN TEMP:  58; 6HR MAX TEMP:  60;

LONE ROCK      CLOUDY    60  57  89 W7        29.90R
6HR MIN TEMP:  59; 6HR MAX TEMP:  61; 6HR PCP:  0.01;

MINERAL POINT  CLOUDY    61  59  94 W9        29.91R FOG
MADISON        PTSUNNY   61  57  87 W3        29.88R
6HR MIN TEMP:  60; 6HR MAX TEMP:  62; 6HR PCP: TRACE;

MIDDLETON      CLOUDY    62  60  93 W7        29.89R
6HR MIN TEMP:  59; 6HR MAX TEMP:  62;

WATERTOWN      CLOUDY    60  60 100 SW7       29.87R
MONROE         LGT RAIN  61  59  94 W13       29.90S
JANESVILLE     CLOUDY    63  61  94 SW8       29.89R
$$

WIZ051-052-058>065-066-070>072-271300-
SOUTHEAST WISCONSIN

CITY           SKY/WX    TMP DP  RH WIND       PRES   REMARKS
MILWAUKEE      PTSUNNY   63  58  83 W10       29.87R
6HR MIN TEMP:  62; 6HR MAX TEMP:  66; 6HR PCP:  0.01;

WAUKESHA       CLOUDY    59  57  94 SW12      29.89R
MILWAUKEE/TIMM CLOUDY    61  55  82 W9        29.88R
RACINE         MOSUNNY   66  60  81 SW8       29.89R
6HR MIN TEMP:  63; 6HR MAX TEMP:  66; 6HR PCP: TRACE;

BURLINGTON     RAIN      61  59  94 W3        29.89R
6HR MIN TEMP:  60; 6HR MAX TEMP:  62; 6HR PCP:  0.04;

KENOSHA        PTSUNNY   65  61  87 SW9       29.88R
6HR MIN TEMP:  63; 6HR MAX TEMP:  65; 6HR PCP: TRACE;

FOND DU LAC    PTSUNNY   62  57  83 SW9       29.84R
6HR MIN TEMP:  61; 6HR MAX TEMP:  63;

SHEBOYGAN      MOSUNNY   63  57  81 SW15      29.82R
6HR MIN TEMP:  60; 6HR MAX TEMP:  63;

WEST BEND      CLOUDY    61  55  82 SW9       29.85S
JUNEAU         CLOUDY    60  58  93 SW9       29.87S
6HR MIN TEMP:  58; 6HR MAX TEMP:  60;

$$

LSZ147-162-271300-
LAKE SUPERIOR

STATION/POSITION TIME  TEMP    WIND        PRES    WAVE
                       AIR SEA DIR/SP/G            HT/PER
                 (UTC) (F)     (DEG/KT/KT) (MB)    (FT/S)
W MID LAKE BUOY  1150   42 37  230/ 12/ 14 1081.0R   1
DEVILS ISLAND    1200   52     240/ 15/ 17 1088.0R
PORT WING        1100   54     200/  5/  7   N/A
SAXON HARBOR     1100   53     190/  3/  8   N/A
$$

LMZ867-665-643>646-271300-
LAKE MICHIGAN

STATION/POSITION TIME  TEMP    WIND        PRES    WAVE
                       AIR SEA DIR/SP/G            HT/PER
                 (UTC) (F)     (DEG/KT/KT) (MB)    (FT/S)
CHAMBERS ISLAND  1100   57     230/  5/ 10 1064.0R
N MID LAKE BUOY  1150   44 37  250/ 14/ 16 1065.0R   5/ 6


USA.gov is the U.S. government's official web portal to all federal, state and local government web resources and services.